This demonstration page uses our WeatherBlox Daily Observations layout. Learn more.

Left ArrowRight Arrow

36.17497, -115.13722

Hourly Observations for May 18, 2017

Temp ( °F °C ) Dew Point ( °F °C ) Humidity (%) Winds ( mph kmh ) Pressure ( in mb ) Visibility ( mi km ) Precip ( " mm )
12:53 am 00:53 Clear 59 15 23 -5 25 25 E 12 19 29.91 1013 10 16 0.00 0.00
1:53 am 01:53 Clear 57 13.9 24 -4.4 28 28 SE 10 17 29.91 1013 10 16 0.00 0.00
2:53 am 02:53 Clear 56 13.3 25 -3.9 30 30 S 5 7 29.93 1013 10 16 0.00 0.00
3:53 am 03:53 Clear 56 13.3 26 -3.3 32 32 WSW 6 9 29.92 1013 10 16 0.00 0.00
4:53 am 04:53 Clear 55 12.8 25 -3.9 31 31 Calm 29.92 1013 10 16 0.00 0.00
5:53 am 05:53 Sunny 56 13.3 18 -7.8 22 22 WNW 3 6 29.93 1014 10 16 0.00 0.00
6:53 am 06:53 Sunny 58 14.4 22 -5.6 25 25 Calm 29.95 1014 10 16 0.00 0.00
7:53 am 07:53 Sunny 59 15 23 -5 25 25 S 6 9 29.96 1015 10 16 0.00 0.00
8:53 am 08:53 Sunny 63 17.2 23 -5 22 22 E 12 19 29.96 1015 10 16 0.00 0.00
9:53 am 09:53 Sunny 65 18.3 22 -5.6 19 19 SE 13 20 29.95 1014 10 16 0.00 0.00
10:53 am 10:53 Sunny 66 18.9 22 -5.6 19 19 VRB 3 6 29.94 1014 10 16 0.00 0.00
11:53 am 11:53 Sunny 69 20.6 22 -5.6 17 17 SE 7 11 29.93 1014 10 16 0.00 0.00
12:53 pm 12:53 Sunny 71 21.7 22 -5.6 16 16 SE 8 13 29.91 1013 10 16 0.00 0.00
1:53 pm 13:53 Sunny 72 22.2 22 -5.6 15 15 VRB 7 11 29.90 1012 10 16 0.00 0.00
2:53 pm 14:53 Sunny 74 23.3 21 -6.1 14 14 E 12 19 29.88 1012 10 16 0.00 0.00
3:53 pm 15:53 Mostly Cloudy 72 22.2 29 -1.7 20 20 E 21 33 29.89 1012 10 16 0.00 0.00
4:53 pm 16:53 Mostly Cloudy 64 17.8 35 1.7 34 34 E 23 37 29.97 1015 10 16 0.00 0.00
5:28 pm 17:28 Mostly Cloudy 67 19.4 31 -0.6 26 26 NNW 26 43 29.88 1012 10 16 0.00 0.00
5:53 pm 17:53 Partly Cloudy 68 20 28 -2.2 22 22 N 14 22 29.98 1015 10 16 0.00 0.00
6:53 pm 18:53 Mostly Sunny 67 19.4 23 -5 19 19 NE 15 24 29.99 1016 10 16 0.00 0.00
7:53 pm 19:53 Clear 63 17.2 27 -2.8 26 26 ESE 8 13 30.02 1017 10 16 0.00 0.00
8:53 pm 20:53 Clear 61 16.1 27 -2.8 27 27 ENE 3 6 30.02 1017 10 16 0.00 0.00
9:53 pm 21:53 Clear 60 15.6 30 -1.1 32 32 SSE 6 9 30.05 1018 10 16 0.00 0.00
10:53 pm 22:53 Clear 59 15 30 -1.1 33 33 Calm 30.06 1018 10 16 0.00 0.00
11:53 pm 23:53 Clear 58 14.4 31 -0.6 36 36 NE 5 7 30.05 1018 10 16 0.00 0.00

Powered by AerisWeather